User: anonymous   Login
Location: Observatory
(49.4490°N, 2.6360°W)
Time: 23:00:59
(UTC+01:00)
Language:

DIWATA 2B (PO-101) - Orbit

View from above orbital plane
View from above orbital plane
View from above satellite
View from above satellite

Ground track
Ground track

The orbit data is extracted from the following two-line orbital elements,

1 43678U 18084H   24148.52963779  .00002330  00000-0  21735-3 0  9995
2 43678  98.0704 305.9174 0010595  98.7211 261.5209 14.95215292303837
Epoch (UTC): 27 May 2024 12:42:40
Eccentricity: 0.0010595
inclination: 98.0704°
perigee height: 574 km
apogee height: 589 km
right ascension of ascending node: 305.9174°
argument of perigee: 98.7211°
revolutions per day: 14.95215292
mean anomaly at epoch: 261.5209°
orbit number at epoch: 30383

The dashed part of the orbit path shows where the satellite is in the earth's shadow,  

DLR